Location: *
(51.0333°S, 178.4667°E)
Time: 23:59:47
(UTC+00:00)

MetOp-B - Pass Details

Date: 15 November 2019
Orbit: 819 x 821 km, 98.7° (Epoch: 14 December)

Event Time Altitude Azimuth Distance (km) Brightness Sun altitude
Rises 10:10:33 0° 165° (SSE) 3,396 8.2 -17.1°
Reaches altitude 10° 10:12:55 10° 165° (SSE) 2,457 7.3 -17.3°
Maximum altitude 10:18:23 89° 72° (ENE) 840 4.1 -17.6°
Enters shadow 10:21:55 23° 344° (NNW) 1,712 5.4 -17.8°
